Hourly Data Report for October 09, 2014

All times are specified in Local Standard Time (LST). Add 1 hour to adjust for Daylight Saving Time where and when it is observed.

KUGAARUK CLIMATE
NUNAVUT

68°32'15.060" N
89°47'47.020" W
15.80 m
2303094
71407
NBB

Download Data

Hourly Data (October 2014)
Hourly Data Report for October 9, 2014
Temp Definition
°C
Dew Point Temp Definition
°C
Rel Hum Definition
%
Wind Dir Definition
10's deg

Wind Spd Definition
km/h
Visibility Definition
km
Stn Press Definition
kPa
Hmdx Definition


Wind Chill Definition


Weather Definition


TIME
00:00 -6.7 -7.5 94 26 7   102.52   -10 LegendNANA
01:00 -6.2 -7.0 94 28 5   102.49   -9 LegendNANA
02:00 -6.0 -6.7 94 31 8   102.45   -10 LegendNANA
03:00 -6.4 -7.2 94 28 8   102.43   -10 LegendNANA
04:00 -6.4 -7.2 94 32 7   102.43   -10 LegendNANA
05:00 -7.1 -8.0 93 25 6   102.41   -10 LegendNANA
06:00 -6.9 -7.7 94 26 5   102.37   -9 LegendNANA
07:00 -7.1 -7.9 94 31 4   102.35   -9 LegendNANA
08:00 -7.1 -7.9 94 29 4   102.31   -9 LegendNANA
09:00 -7.6 -8.5 93 29 6   102.27   -11 LegendNANA
10:00 -7.6 -8.4 94 28 7   102.24   -11 LegendNANA
11:00 -8.0 -8.9 93 28 9   102.23   -13 LegendNANA
12:00 -7.8 -8.7 93 32 6   102.23   -11 LegendNANA
13:00 -7.6 -8.6 92 32 8   102.22   -12 LegendNANA
14:00 -6.8 -7.7 94 31 8   102.17   -11 LegendNANA
15:00 -6.6 -7.4 94 33 8   102.14   -10 LegendNANA
16:00 -6.5 -7.4 94 32 9   102.13   -11 LegendNANA
17:00 -6.4 -7.2 94 33 9   102.08   -11 LegendNANA
18:00 -6.4 -7.3 93 35 13   102.02   -12 LegendNANA
19:00 -6.8 -7.7 93 1 9   101.98   -11 LegendNANA
20:00 -7.2 -8.2 93 2 10   101.90   -12 LegendNANA
21:00 -7.0 -8.0 93 36 12   101.85   -12 LegendNANA
22:00 -7.1 -8.0 93 34 12   101.79   -12 LegendNANA
23:00 -6.9 -7.9 93 35 8   101.74   -11 LegendNANA

Notes on Data Quality.

Legend

  • E = Estimated
  • M = Missing
  • NA = Not Available
  • ‡ = Partner data that is not subject to review by the National Climate Archives
Date modified: